FW1299 Weather Reports


Display with metric or nautical units.
time (UTC)temp
F
wind
direction
speed
MPH
gust
MPH
rain 1hr
in
rain 24hr
in
rain mn
in
humidity
%
barometer
mb
20260507022138 62 275 1.0 5.0 0.02 0.10 0.10 94 1009.0
20260507021138 63 258 0.0 3.0 0.02 0.10 0.10 94 1009.0
20260507020138 64 263 1.0 3.0 0.02 0.10 0.10 92 1008.8
20260507015139 65 262 1.0 6.0 0.01 0.09 0.09 90 1008.8
20260507014132 66 263 0.0 3.0 0.00 0.08 0.08 88 1008.6
20260507013134 66 203 0.0 4.0 0.00 0.08 0.08 88 1008.2
20260507011132 66 203 0.0 1.0 0.00 0.08 0.08 88 1008.5
20260507010132 66 238 0.0 2.0 0.00 0.08 0.08 88 1007.8
20260507005131 66 231 0.0 2.0 0.00 0.08 0.08 88 1007.6
20260507004131 66 181 0.0 1.0 0.00 0.08 0.08 88 1007.7
20260507003132 66 213 0.0 1.0 0.00 0.08 0.08 88 1007.6
20260507001127 66 129 0.0 0.0 0.00 0.08 0.08 87 1007.5
20260507000126 67 129 0.0 2.0 0.00 0.08 0.08 87 1007.4
20260506235127 67 243 0.0 1.0 0.00 0.08 0.08 87 1007.5
20260506234127 67 256 0.0 1.0 0.00 0.08 0.08 87 1007.4
20260506233126 67 256 0.0 2.0 0.00 0.08 0.08 86 1007.3
20260506232125 67 252 1.0 6.0 0.00 0.08 0.08 86 1007.4
20260506230125 68 219 1.0 4.0 0.00 0.08 0.08 85 1007.2
20260506225127 68 231 1.0 4.0 0.00 0.08 0.08 85 1007.2
20260506224124 68 284 1.0 5.0 0.00 0.08 0.08 86 1007.1
20260506223124 67 203 1.0 5.0 0.00 0.08 0.08 87 1007.2
20260506222124 67 228 1.0 5.0 0.00 0.08 0.08 87 1007.3
20260506221123 67 239 1.0 4.0 0.00 0.08 0.08 87 1007.2
20260506220126 67 228 1.0 5.0 0.00 0.08 0.08 87 1007.1
20260506215121 67 228 2.0 4.0 0.00 0.08 0.08 87 1007.1
20260506214121 66 193 2.0 6.0 0.00 0.08 0.08 87 1007.1
20260506213122 66 256 1.0 6.0 0.00 0.08 0.08 87 1007.0
20260506212122 66 215 3.0 8.0 0.00 0.08 0.08 87 1007.0
20260506211120 66 247 2.0 8.0 0.00 0.08 0.08 88 1006.9
20260506205120 66 266 2.0 8.0 0.00 0.08 0.08 88 1006.8
20260506204120 66 221 2.0 8.0 0.00 0.08 0.08 88 1006.7
20260506203121 65 148 1.0 6.0 0.00 0.08 0.08 90 1006.6
20260506202121 65 248 1.0 5.0 0.00 0.08 0.08 92 1006.7
20260506201121 64 196 1.0 4.0 0.00 0.08 0.08 92 1006.7
20260506200121 64 191 1.0 6.0 0.00 0.08 0.08 93 1006.9
20260506194121 63 152 2.0 6.0 0.00 0.08 0.08 94 1007.2
20260506193112 63 268 3.0 10.0 0.00 0.08 0.08 93 1007.4
20260506191110 63 223 1.0 4.0 0.01 0.08 0.08 94 1007.4
20260506190108 63 157 1.0 5.0 0.01 0.08 0.08 94 1007.5
20260506184108 63 250 3.0 9.0 0.01 0.08 0.08 94 1007.6
20260506183110 63 249 2.0 9.0 0.01 0.08 0.08 93 1007.7
20260506182110 63 233 2.0 10.0 0.01 0.08 0.08 92 1007.6
20260506181110 64 233 3.0 11.0 0.00 0.07 0.07 91 1007.8
20260506180110 65 140 0.0 3.0 0.00 0.07 0.07 91 1007.7
20260506174108 65 197 1.0 5.0 0.01 0.07 0.07 91 1008.0
20260506164110 63 203 1.0 4.0 0.06 0.06 0.06 92 1008.6
20260506162109 63 231 0.0 2.0 0.05 0.05 0.05 91 1009.1
20260506161112 64 214 0.0 5.0 0.04 0.04 0.04 90 1009.3
20260506160104 64 170 1.0 6.0 0.03 0.03 0.03 87 1009.5
20260506155103 66 200 1.0 6.0 0.01 0.01 0.01 84 1009.3
20260506154104 67 176 1.0 6.0 0.00 0.00 0.00 80 1009.3
20260506153103 68 229 2.0 9.0 0.00 0.00 0.00 79 1009.1
20260506152104 69 305 1.0 5.0 0.00 0.00 0.00 79 1009.3
20260506151102 69 276 1.0 7.0 0.00 0.00 0.00 77 1009.1
20260506145103 69 262 5.0 13.0 0.00 0.00 0.00 74 1009.6
20260506144103 70 175 3.0 11.0 0.00 0.00 0.00 73 1009.7
20260506143058 70 229 5.0 13.0 0.00 0.00 0.00 73 1009.6
20260506142058 70 240 5.0 14.0 0.00 0.00 0.00 73 1009.7
20260506141058 69 278 3.0 15.0 0.00 0.00 0.00 75 1009.5
20260506140100 69 229 3.0 10.0 0.00 0.00 0.00 75 1009.6
20260506135058 69 245 4.0 11.0 0.00 0.00 0.00 75 1009.5
20260506134059 69 240 3.0 12.0 0.00 0.00 0.00 74 1009.5
20260506133058 69 258 3.0 15.0 0.00 0.00 0.00 75 1009.8
20260506132100 69 98 4.0 13.0 0.00 0.00 0.00 74 1009.6
20260506131059 69 226 3.0 11.0 0.00 0.00 0.00 76 1009.6
20260506130100 68 252 3.0 9.0 0.00 0.00 0.00 76 1009.7
20260506125058 68 320 3.0 11.0 0.00 0.00 0.00 77 1009.3
20260506124059 68 135 3.0 11.0 0.00 0.00 0.00 78 1009.3
20260506122100 67 277 2.0 12.0 0.00 0.00 0.00 78 1009.6
20260506120056 66 219 2.0 13.0 0.00 0.00 0.00 79 1009.7
20260506115055 66 138 3.0 11.0 0.00 0.00 0.00 79 1009.7
20260506114057 66 281 2.0 11.0 0.00 0.00 0.00 79 1010.0
20260506113058 66 283 2.0 11.0 0.00 0.00 0.00 80 1009.9
20260506112057 66 174 1.0 6.0 0.00 0.00 0.00 81 1009.9
20260506111056 65 142 2.0 9.0 0.00 0.00 0.00 82 1009.9
20260506110057 65 144 2.0 15.0 0.00 0.00 0.00 82 1009.8
20260506105057 64 203 2.0 11.0 0.00 0.00 0.00 83 1009.7
20260506104049 64 152 2.0 7.0 0.00 0.00 0.00 84 1009.6
20260506103049 63 127 1.0 6.0 0.00 0.00 0.00 84 1009.6
20260506102045 63 233 2.0 7.0 0.00 0.00 0.00 84 1009.8
20260506101045 63 180 1.0 6.0 0.00 0.00 0.00 84 1009.6
20260506095045 64 136 2.0 7.0 0.00 0.00 0.00 84 1009.4
20260506094041 64 212 1.0 8.0 0.00 0.00 0.00 84 1009.3
20260506093042 64 306 1.0 7.0 0.00 0.00 0.00 84 1009.5
20260506092042 64 269 2.0 11.0 0.00 0.00 0.00 83 1009.3
20260506090036 64 139 1.0 10.0 0.00 0.00 0.00 83 1009.5
20260506085037 64 207 2.0 8.0 0.00 0.00 0.00 83 1009.5
20260506084035 64 237 2.0 9.0 0.00 0.00 0.00 83 1009.6
20260506083035 64 217 1.0 9.0 0.00 0.00 0.00 83 1009.6
20260506082035 65 139 2.0 9.0 0.00 0.00 0.00 83 1009.6
20260506081034 65 259 2.0 7.0 0.00 0.00 0.00 83 1009.6
20260506073031 65 252 1.0 7.0 0.00 0.00 0.00 81 1009.7
20260506062033 66 232 2.0 8.0 0.00 0.00 0.00 78 1010.0
20260506061029 66 201 1.0 8.0 0.00 0.00 0.00 78 1010.0
20260506051030 67 250 1.0 6.0 0.00 0.00 0.00 74 1010.3
20260506045031 68 177 2.0 8.0 0.00 0.00 0.00 73 1010.3
20260506044030 68 188 1.0 5.0 0.00 0.00 0.00 72 1010.4
20260506042033 68 147 1.0 7.0 0.00 0.00 0.00 72 1010.4
20260506041030 68 212 1.0 8.0 0.00 0.00 0.00 71 1010.3
20260506040035 68 136 2.0 8.0 0.00 0.00 0.00 70 1010.3
20260506035025 68 165 2.0 6.0 0.00 0.00 0.00 70 1010.4
20260506033028 69 130 1.0 6.0 0.00 0.00 0.00 69 1010.3
20260506032024 69 158 2.0 8.0 0.00 0.00 0.00 68 1010.3
20260506031024 69 147 2.0 8.0 0.00 0.00 0.00 68 1010.2
20260506030028 69 184 1.0 10.0 0.00 0.00 0.00 68 1010.3
20260506025028 69 207 1.0 4.0 0.00 0.00 0.00 67 1010.2
20260506024028 69 211 1.0 7.0 0.00 0.00 0.00 66 1010.4
20260506023030 70 190 1.0 9.0 0.00 0.00 0.00 65 1010.4